This is the latest recevied weather packets stored in our database for station/object 9W2RUT-G. If no packets are shown the sender has not sent any weather packets the latest 10 day(s).
| Time | Temp. | Humidity | Pressure | Rain* | Wind** | Luminosity | Snow |
|---|---|---|---|---|---|---|---|
| 1777713344 | 26.67° C | 29% | 1009.7 hPa | - | - | - | - |
| 1777712443 | 27.22° C | 30% | 1009.6 hPa | - | - | - | - |
| 1777711543 | 28.33° C | 30% | 1009.7 hPa | - | - | - | - |
| 1777710642 | 29.44° C | 30% | 1009.9 hPa | - | - | - | - |
| 1777709741 | 31.67° C | 31% | 1010.5 hPa | - | - | - | - |
| 1777708841 | 35° C | 44% | 1010.3 hPa | - | - | - | - |
| 1777707941 | 35° C | 44% | 1010.4 hPa | - | - | - | - |
| 1777707040 | 35° C | 43% | 1010.4 hPa | - | - | - | - |
| 1777706140 | 35° C | 43% | 1010.9 hPa | - | - | - | - |
| 1777705239 | 35° C | 44% | 1010.8 hPa | - | - | - | - |
| 1777704337 | 35° C | 44% | 1010.9 hPa | - | - | - | - |
| 1777703436 | 35° C | 44% | 1011.1 hPa | - | - | - | - |
| 1777702536 | 34.44° C | 44% | 1011.2 hPa | - | - | - | - |
| 1777701636 | 34.44° C | 44% | 1011.4 hPa | - | - | - | - |
| 1777700735 | 34.44° C | 45% | 1011.5 hPa | - | - | - | - |
| 1777699835 | 33.89° C | 44% | 1011.8 hPa | - | - | - | - |
| 1777698933 | 33.89° C | 45% | 1012.3 hPa | - | - | - | - |
| 1777698033 | 33.89° C | 45% | 1012.6 hPa | - | - | - | - |
| 1777697132 | 33.33° C | 45% | 1012.9 hPa | - | - | - | - |
| 1777696231 | 33.33° C | 46% | 1013.2 hPa | - | - | - | - |
| 1777695331 | 33.33° C | 45% | 1013.6 hPa | - | - | - | - |
| 1777694430 | 31.11° C | 50% | 1013.7 hPa | - | - | - | - |
| 1777693545 | 32.78° C | 45% | 1014 hPa | - | - | - | - |
| 1777692645 | 32.78° C | 46% | 1013.9 hPa | - | - | - | - |
| 1777691745 | 32.78° C | 44% | 1014 hPa | - | - | - | - |
* Rain since midnight (hover to see other rain measurements)
** Current wind speed in m/s (hover to see current wind gust speed)